Hourly Data Report for February 03, 2015

All times are specified in Local Standard Time (LST). Add 1 hour to adjust for Daylight Saving Time where and when it is observed.

GERALDTON A
ONTARIO

49°46'58.090" N
86°55'50.050" W
348.40 m
6042716
71834
YGQ

Download Data

Hourly Data (February 2015)
Hourly Data Report for February 3, 2015
Temp Definition
°C
Dew Point Temp Definition
°C
Rel Hum Definition
%
Wind Dir Definition
10's deg

Wind Spd Definition
km/h
Visibility Definition
km
Stn Press Definition
kPa
Hmdx Definition


Wind Chill Definition


Weather Definition


TIME
00:00 -24.8 -27.2 80 25 11 24.1 96.88   -33 Snow
01:00 -24.8 -27.0 82 25 11 24.1 96.88   -33 Mainly Clear
02:00 -24.2 -26.7 80 25 9 24.1 96.85   -32 Ice Crystals
03:00 -25.1 -27.4 81 25 9 24.1 96.85   -33 Ice Crystals
04:00 -23.1 -25.5 81 26 13 24.1 96.86   -32 Ice Crystals
05:00 -23.5 -25.9 81 26 11 24.1 96.86   -32 Mainly Clear
06:00 -23.7 -26.2 80 26 11 24.1 96.89   -32 Clear
07:00 -25.3 -27.8 80 25 9 24.1 96.92   -33 Clear
08:00 -26.2 -28.7 79 25 9 24.1 96.94   -34 Mostly Cloudy
09:00 -24.3 -26.8 80 27 7 19.3 96.96   -31 Snow
10:00 -22.2 -24.8 79 26 7 19.3 96.97   -28 Ice Crystals
11:00 -20.6 -23.3 79 26 9 19.3 97.04   -27 Ice Crystals
12:00 -19.5 -22.9 74 25 11 19.3 97.05   -27 Ice Crystals
13:00 -18.9 -23.1 69 26 13 12.9 97.04   -27 Snow
14:00 -18.6 -23.4 66 27 13 3.2 97.04   -27 Snow
15:00 -18.7 -23.9 64 28 11 24.1 97.04   -26 Snow
16:00 -18.5 -23.8 63 26 17 24.1 97.06   -28 Mainly Clear
17:00 -19.5 -24.2 66 26 17 24.1 97.08   -29 Mainly Clear
18:00 -20.7 -24.7 70 26 9 24.1 97.12   -28 Clear
19:00 -24.4 -26.8 80 23 7 24.1 97.17   -31 Clear
20:00 -26.0 -28.5 79 22 6 24.1 97.22   -32 Clear
21:00 -26.7 -28.8 82 20 6 24.1 97.22   -33 Clear
22:00 -28.6 -31.4 77 23 4 24.1 97.22   -33 Clear
23:00 -30.4 -33.3 76 25 4 24.1 97.18   -35 Clear

Notes on Data Quality.

Legend

  • E = Estimated
  • M = Missing
  • NA = Not Available
  • ‡ = Partner data that is not subject to review by the National Climate Archives
Date modified: